| time (UTC) | temp F | wind direction | speed MPH | gust MPH | rain 1hr in | rain 24hr in | rain mn in | humidity % | barometer mb |
| 20260901224553 | 97 | 117 | 0.0 | 5.0 | 0.00 | 0.00 | 0.00 | 43 | 1009.8 |
| 20260901223059 | 97 | 132 | 1.0 | 8.0 | 0.00 | 0.00 | 0.00 | 42 | 1009.8 |
| 20260901221608 | 97 | 144 | 1.0 | 7.0 | 0.00 | 0.00 | 0.00 | 43 | 1009.8 |
| 20260901220047 | 97 | 136 | 0.0 | 7.0 | 0.00 | 0.00 | 0.00 | 43 | 1009.7 |
| 20260901214546 | 97 | 141 | 0.0 | 4.0 | 0.00 | 0.00 | 0.00 | 41 | 1010.1 |
| 20260901213047 | 98 | 153 | 0.0 | 7.0 | 0.00 | 0.00 | 0.00 | 40 | 1010.2 |
| 20260901211544 | 98 | 117 | 0.0 | 6.0 | 0.00 | 0.00 | 0.00 | 41 | 1010.2 |
| 20260901210042 | 98 | 178 | 1.0 | 9.0 | 0.00 | 0.00 | 0.00 | 40 | 1010.4 |
| 20260901204544 | 99 | 140 | 2.0 | 8.0 | 0.00 | 0.00 | 0.00 | 41 | 1010.5 |
| 20260901203057 | 100 | 136 | 1.0 | 8.0 | 0.00 | 0.00 | 0.00 | 41 | 1010.5 |
| 20260901201545 | 99 | 128 | 0.0 | 8.0 | 0.00 | 0.00 | 0.00 | 42 | 1010.8 |
| 20260901200034 | 98 | 270 | 0.0 | 6.0 | 0.00 | 0.00 | 0.00 | 41 | 1010.9 |
| 20260901194532 | 98 | 156 | 0.0 | 9.0 | 0.00 | 0.00 | 0.00 | 42 | 1011.0 |
| 20260901193032 | 98 | 178 | 1.0 | 6.0 | 0.00 | 0.00 | 0.00 | 43 | 1011.2 |
| 20260901191528 | 97 | 140 | 1.0 | 9.0 | 0.00 | 0.00 | 0.00 | 42 | 1011.5 |
| 20260901190033 | 97 | 253 | 0.0 | 10.0 | 0.00 | 0.00 | 0.00 | 42 | 1011.7 |
| 20260901184525 | 97 | 180 | 0.0 | 4.0 | 0.00 | 0.00 | 0.00 | 45 | 1012.0 |
| 20260901183024 | 97 | 138 | 0.0 | 7.0 | 0.00 | 0.00 | 0.00 | 44 | 1012.3 |
| 20260901181523 | 97 | 142 | 0.0 | 8.0 | 0.00 | 0.00 | 0.00 | 44 | 1012.7 |
| 20260901180021 | 97 | 201 | 0.0 | 4.0 | 0.00 | 0.00 | 0.00 | 47 | 1012.9 |
| 20260901174517 | 96 | 161 | 0.0 | 5.0 | 0.00 | 0.00 | 0.00 | 48 | 1013.2 |
| 20260901173016 | 96 | 136 | 1.0 | 5.0 | 0.00 | 0.00 | 0.00 | 47 | 1013.4 |
| 20260901171513 | 96 | 126 | 0.0 | 5.0 | 0.00 | 0.00 | 0.00 | 49 | 1013.5 |
| 20260901170014 | 94 | 143 | 0.0 | 4.0 | 0.00 | 0.00 | 0.00 | 50 | 1013.6 |
| 20260901164510 | 94 | 137 | 0.0 | 5.0 | 0.00 | 0.00 | 0.00 | 50 | 1013.8 |
| 20260901163008 | 94 | 143 | 0.0 | 4.0 | 0.00 | 0.00 | 0.00 | 51 | 1013.9 |
| 20260901161506 | 94 | 242 | 0.0 | 2.0 | 0.00 | 0.00 | 0.00 | 52 | 1014.0 |
| 20260901160104 | 92 | 246 | 0.0 | 8.0 | 0.00 | 0.00 | 0.00 | 53 | 1014.0 |
| 20260901154557 | 91 | 263 | 0.0 | 7.0 | 0.00 | 0.00 | 0.00 | 55 | 1014.1 |
| 20260901153055 | 91 | 275 | 0.0 | 3.0 | 0.00 | 0.00 | 0.00 | 56 | 1013.9 |
| 20260901151553 | 90 | 260 | 0.0 | 5.0 | 0.00 | 0.00 | 0.00 | 57 | 1013.9 |
| 20260901150051 | 89 | 236 | 0.0 | 4.0 | 0.00 | 0.00 | 0.00 | 60 | 1014.0 |
| 20260901144546 | 88 | 212 | 0.0 | 2.0 | 0.00 | 0.00 | 0.00 | 63 | 1014.1 |
| 20260901143045 | 87 | 150 | 0.0 | 0.0 | 0.00 | 0.00 | 0.00 | 65 | 1014.2 |
| 20260901141543 | 85 | 150 | 0.0 | 3.0 | 0.00 | 0.00 | 0.00 | 66 | 1014.1 |
| 20260901140042 | 84 | 150 | 0.0 | 0.0 | 0.00 | 0.00 | 0.00 | 70 | 1014.1 |
| 20260901134559 | 83 | 150 | 0.0 | 2.0 | 0.00 | 0.00 | 0.00 | 71 | 1014.1 |
| 20260901133040 | 82 | 146 | 0.0 | 2.0 | 0.00 | 0.00 | 0.00 | 72 | 1014.1 |
| 20260901131538 | 81 | 138 | 0.0 | 0.0 | 0.00 | 0.00 | 0.00 | 72 | 1014.0 |
| 20260901130037 | 81 | 138 | 0.0 | 0.0 | 0.00 | 0.00 | 0.00 | 73 | 1014.0 |
| 20260901124540 | 80 | 138 | 0.0 | 0.0 | 0.00 | 0.00 | 0.00 | 74 | 1013.8 |
| 20260901123032 | 0 | 0.0 | 0.0 | 0.00 | 0.00 | 0.00 | 1013.5 | ||
| 20260901121528 | 0 | 0.0 | 0.0 | 0.00 | 0.00 | 0.00 | 1013.2 | ||
| 20260901120024 | 0 | 0.0 | 0.0 | 0.00 | 0.00 | 0.00 | 1013.1 | ||
| 20260901114523 | 80 | 138 | 0.0 | 0.0 | 0.00 | 0.00 | 0.00 | 71 | 1013.0 |
| 20260901113019 | 80 | 138 | 0.0 | 0.0 | 0.00 | 0.00 | 0.00 | 71 | 1012.9 |
| 20260901111514 | 80 | 138 | 0.0 | 0.0 | 0.00 | 0.00 | 0.00 | 71 | 1012.8 |
| 20260901110013 | 81 | 138 | 0.0 | 0.0 | 0.00 | 0.00 | 0.00 | 70 | 1012.7 |
| 20260901104511 | 81 | 138 | 0.0 | 0.0 | 0.00 | 0.00 | 0.00 | 68 | 1012.7 |
| 20260901103010 | 81 | 138 | 0.0 | 0.0 | 0.00 | 0.00 | 0.00 | 67 | 1012.7 |
| 20260901101508 | 82 | 138 | 0.0 | 0.0 | 0.00 | 0.00 | 0.00 | 67 | 1012.8 |
| 20260901100008 | 82 | 138 | 0.0 | 0.0 | 0.00 | 0.00 | 0.00 | 66 | 1012.8 |
| 20260901094507 | 82 | 138 | 0.0 | 0.0 | 0.00 | 0.00 | 0.00 | 66 | 1012.8 |
| 20260901093015 | 82 | 138 | 0.0 | 0.0 | 0.00 | 0.00 | 0.00 | 65 | 1012.8 |
| 20260901091503 | 83 | 138 | 0.0 | 0.0 | 0.00 | 0.00 | 0.00 | 64 | 1012.7 |
| 20260901090104 | 83 | 138 | 0.0 | 0.0 | 0.00 | 0.00 | 0.00 | 63 | 1012.8 |
| 20260901084601 | 83 | 138 | 0.0 | 0.0 | 0.00 | 0.00 | 0.00 | 63 | 1012.5 |
| 20260901083058 | 84 | 138 | 0.0 | 0.0 | 0.00 | 0.00 | 0.00 | 62 | 1012.5 |
| 20260901081602 | 84 | 138 | 0.0 | 0.0 | 0.00 | 0.00 | 0.00 | 60 | 1012.4 |
| 20260901080054 | 85 | 138 | 0.0 | 0.0 | 0.00 | 0.00 | 0.00 | 59 | 1012.6 |
| 20260901074554 | 85 | 138 | 0.0 | 0.0 | 0.00 | 0.00 | 0.00 | 58 | 1012.6 |
| 20260901073059 | 85 | 138 | 0.0 | 1.0 | 0.00 | 0.00 | 0.00 | 57 | 1012.5 |
| 20260901071548 | 86 | 138 | 0.0 | 3.0 | 0.00 | 0.00 | 0.00 | 56 | 1012.4 |
| 20260901070057 | 86 | 126 | 0.0 | 1.0 | 0.00 | 0.00 | 0.00 | 56 | 1012.4 |
| 20260901064545 | 86 | 123 | 0.0 | 2.0 | 0.00 | 0.00 | 0.00 | 55 | 1012.4 |
| 20260901063047 | 87 | 135 | 0.0 | 0.0 | 0.00 | 0.00 | 0.00 | 54 | 1012.2 |
| 20260901061542 | 87 | 134 | 0.0 | 4.0 | 0.00 | 0.00 | 0.00 | 53 | 1012.0 |
| 20260901060045 | 87 | 138 | 0.0 | 6.0 | 0.00 | 0.00 | 0.00 | 52 | 1011.9 |
| 20260901054538 | 87 | 150 | 1.0 | 6.0 | 0.00 | 0.00 | 0.00 | 52 | 1011.7 |
| 20260901053100 | 87 | 144 | 0.0 | 3.0 | 0.00 | 0.00 | 0.00 | 51 | 1011.6 |
| 20260901051531 | 87 | 148 | 0.0 | 1.0 | 0.00 | 0.00 | 0.00 | 50 | 1011.6 |
| 20260901050028 | 86 | 148 | 0.0 | 0.0 | 0.00 | 0.00 | 0.00 | 51 | 1011.4 |
| 20260901044531 | 86 | 148 | 0.0 | 5.0 | 0.00 | 0.00 | 0.00 | 52 | 1011.2 |
| 20260901043036 | 86 | 148 | 0.0 | 0.0 | 0.00 | 0.00 | 0.00 | 53 | 1011.2 |
| 20260901041528 | 86 | 148 | 0.0 | 0.0 | 0.00 | 0.00 | 0.00 | 53 | 1011.1 |
| 20260901040026 | 87 | 148 | 0.0 | 0.0 | 0.00 | 0.00 | 0.00 | 51 | 1011.0 |
| 20260901034526 | 87 | 148 | 0.0 | 0.0 | 0.00 | 0.00 | 0.00 | 49 | 1011.1 |
| 20260901033037 | 88 | 149 | 0.0 | 0.0 | 0.00 | 0.00 | 0.00 | 48 | 1011.0 |
| 20260901031526 | 89 | 148 | 0.0 | 0.0 | 0.00 | 0.00 | 0.00 | 46 | 1011.1 |
| 20260901030024 | 89 | 149 | 0.0 | 0.0 | 0.00 | 0.00 | 0.00 | 45 | 1011.0 |
| 20260901024525 | 90 | 149 | 0.0 | 0.0 | 0.00 | 0.00 | 0.00 | 43 | 1010.7 |
| 20260901023024 | 91 | 148 | 0.0 | 0.0 | 0.00 | 0.00 | 0.00 | 42 | 1010.6 |
| 20260901021528 | 91 | 148 | 0.0 | 0.0 | 0.00 | 0.00 | 0.00 | 41 | 1010.4 |
| 20260901020042 | 92 | 148 | 0.0 | 0.0 | 0.00 | 0.00 | 0.00 | 41 | 1010.3 |
| 20260901014521 | 92 | 148 | 0.0 | 0.0 | 0.00 | 0.00 | 0.00 | 39 | 1010.2 |
| 20260901013021 | 93 | 148 | 0.0 | 0.0 | 0.00 | 0.00 | 0.00 | 38 | 1010.1 |
| 20260901011532 | 94 | 148 | 0.0 | 0.0 | 0.00 | 0.00 | 0.00 | 36 | 1010.0 |
| 20260901010020 | 95 | 148 | 0.0 | 0.0 | 0.00 | 0.00 | 0.00 | 34 | 1009.9 |
| 20260901004519 | 96 | 148 | 0.0 | 6.0 | 0.00 | 0.00 | 0.00 | 34 | 1009.9 |
| 20260901003019 | 97 | 130 | 0.0 | 4.0 | 0.00 | 0.00 | 0.00 | 33 | 1009.8 |
| 20260901001522 | 98 | 118 | 0.0 | 3.0 | 0.00 | 0.00 | 0.00 | 32 | 1009.9 |
| 20260901000018 | 98 | 130 | 0.0 | 4.0 | 0.00 | 0.00 | 0.00 | 31 | 1009.7 |
| 20260831234517 | 100 | 248 | 0.0 | 1.0 | 0.00 | 0.00 | 0.00 | 31 | 1009.9 |
| 20260831233032 | 99 | 142 | 0.0 | 7.0 | 0.00 | 0.00 | 0.00 | 30 | 1009.8 |
| 20260831231516 | 100 | 133 | 0.0 | 5.0 | 0.00 | 0.00 | 0.00 | 32 | 1009.8 |
| 20260831230015 | 100 | 127 | 0.0 | 8.0 | 0.00 | 0.00 | 0.00 | 31 | 1009.9 |